User: anonymous   Login
Location: Santa Barbara
(34.4500°N, 119.7700°W)
Time: 01:25:11
(UTC-07:00)
Language:

Cosmos 1892 Rocket - Orbit

View from above orbital plane
View from above orbital plane
View from above satellite
View from above satellite

Ground track
Ground track

The orbit data is extracted from the following two-line orbital elements,

1 18422U 87088B   14304.15568097  .00000460  00000-0  54192-4 0  3956
2 18422 082.5126 356.2719 0019406 005.2727 048.6306 14.82488633459551
Epoch (UTC): 31 October 2014 03:44:10
Eccentricity: 0.0019406
inclination: 82.5126°
perigee height: 608 km
apogee height: 635 km
right ascension of ascending node: 356.2719°
argument of perigee: 5.2727°
revolutions per day: 14.82488633
mean anomaly at epoch: 48.6306°
orbit number at epoch: 45955

The dashed part of the orbit path shows where the satellite is in the earth's shadow,  

DLR